{"data":{"norad_id":36413,"intl_designator":"2010-009A","name":"YAOGAN-9 01A","alt_names":[],"object_type":"PAYLOAD","status":"ACTIVE","operator":null,"country":"PRC","launch_date":"2010-03-05","launch_site_code":"JSC","launch_vehicle":null,"mission":null,"orbit_class":"UNKNOWN","rcs_meters":2.702,"size_class":null,"mass_kg":null,"dimensions":null,"purposes":[],"wikipedia_slug":null,"has_3d_model":false,"image_url":null,"decayed_at":null,"tle_current":{"epoch":"2026-09-20T00:28:12.301248Z","epoch_age_seconds":67353,"freshness":"FRESH","line1":"1 36413U 10009A   26263.01958682 -.00000036  00000+0  38823-4 0  9992","line2":"2 36413  63.3615 112.7812 0545561  22.5123 339.8881 13.45717542812736","mean_motion":13.45717542,"eccentricity":0.0545561,"inclination_deg":63.3615,"raan_deg":112.7812,"arg_perigee_deg":22.5123,"mean_anomaly_deg":339.8881,"bstar":3.8823e-5,"rev_number":81273,"period_min":107.00611049923,"perigee_km":680.72995367049,"apogee_km":1495.3827351018,"semimajor_km":7466.1933443862,"source":"CELESTRAK","updated_at":"2026-09-20T09:00:13.747545Z"}}}